sat.trackr.live / text

‹ back to catalog

STARLINK-36932

NORAD 68331 · 2026-059L

PAYLOAD ACTIVE UNKNOWN

§ Identity

Operator
Country
US
Launch date
2026-03-22
Launch site
AFETR
Launch vehicle
Mass (kg)
RCS (m²)

Purposes: comms

External: N2YO · Heavens-Above · Gunter

§ Orbital elements

Epoch: 2026-05-24T20:48:53.698752Z

Period
93.79 min
Inclination
53.1603°
Eccentricity
0.0001179
Mean motion
15.35393706 rev/d
Perigee alt
458.9 km
Apogee alt
460.6 km
Semi-major
6,837.9 km
B*
-7.7070e-4
RAAN
350.5163°
Arg perigee
104.9447°
Mean anomaly
255.1687°
Rev number
989

§ Raw data

STARLINK-369321 68331U 26059L   26144.86728818 -.00027162  00000+0 -77070-3 0  99912 68331  53.1603 350.5163 0001179 104.9447 255.1687 15.35393706  9893

JSON: /api/v1/satellites/68331 · /tle

For live sub-satellite position, see the globe view (requires WebGL).

§ Visibility from observer

Set your observer location to see the next 7 days of passes ≥ 10°. The values pass through the URL so the page stays shareable.

No JS? Fill the form by hand. The geolocation button needs JavaScript.